Year,Month,Day,Hour,Minute,Value (Times are PST for temperature in C)
2014,07,15,00,00,22.50
2014,07,15,00,01,22.50
2014,07,15,00,02,22.50
2014,07,15,00,03,22.40
2014,07,15,00,04,22.40
2014,07,15,00,05,22.40
2014,07,15,00,06,22.30
2014,07,15,00,07,22.30
2014,07,15,00,08,22.20
2014,07,15,00,09,22.20
2014,07,15,00,10,22.20
2014,07,15,00,11,22.20
2014,07,15,00,12,22.10
2014,07,15,00,13,22.10
2014,07,15,00,14,22.10
2014,07,15,00,15,22.00
2014,07,15,00,16,22.00
2014,07,15,00,17,22.00
2014,07,15,00,18,22.00
2014,07,15,00,19,22.00
2014,07,15,00,20,21.90
2014,07,15,00,21,21.90
2014,07,15,00,22,21.90
2014,07,15,00,23,21.90
2014,07,15,00,24,21.90
2014,07,15,00,25,21.90
2014,07,15,00,26,21.80
2014,07,15,00,27,21.80
2014,07,15,00,28,21.80
2014,07,15,00,29,21.80
2014,07,15,00,30,21.80
2014,07,15,00,31,21.80
2014,07,15,00,32,21.80
2014,07,15,00,33,21.70
2014,07,15,00,34,21.70
2014,07,15,00,35,21.70
2014,07,15,00,36,21.70
2014,07,15,00,37,21.70
2014,07,15,00,38,21.60
2014,07,15,00,39,21.60
2014,07,15,00,40,21.60
2014,07,15,00,41,21.60
2014,07,15,00,42,21.50
2014,07,15,00,43,21.50
2014,07,15,00,44,21.50
2014,07,15,00,45,21.40
2014,07,15,00,46,21.40
2014,07,15,00,47,21.40
2014,07,15,00,48,21.40
2014,07,15,00,49,21.30
2014,07,15,00,50,21.30
2014,07,15,00,51,21.30
2014,07,15,00,52,21.30
2014,07,15,00,53,21.30
2014,07,15,00,54,21.30
2014,07,15,00,55,21.30
2014,07,15,00,56,21.20
2014,07,15,00,57,21.20
2014,07,15,00,58,21.20
2014,07,15,00,59,21.20
2014,07,15,01,00,21.20
2014,07,15,01,01,21.20
2014,07,15,01,02,21.20
2014,07,15,01,03,21.20
2014,07,15,01,04,21.20
2014,07,15,01,05,21.20
2014,07,15,01,06,21.20
2014,07,15,01,07,21.20
2014,07,15,01,08,21.20
2014,07,15,01,09,21.20
2014,07,15,01,10,21.20
2014,07,15,01,11,21.20
2014,07,15,01,12,21.10
2014,07,15,01,13,21.10
2014,07,15,01,14,21.10
2014,07,15,01,15,21.10
2014,07,15,01,16,21.10
2014,07,15,01,17,21.00
2014,07,15,01,18,21.00
2014,07,15,01,19,21.00
2014,07,15,01,20,21.00
2014,07,15,01,21,20.90
2014,07,15,01,22,20.90
2014,07,15,01,23,20.90
2014,07,15,01,24,20.90
2014,07,15,01,25,20.90
2014,07,15,01,26,20.90
2014,07,15,01,27,20.90
2014,07,15,01,28,20.90
2014,07,15,01,29,20.90
2014,07,15,01,30,20.90
2014,07,15,01,31,20.90
2014,07,15,01,32,20.90
2014,07,15,01,33,20.90
2014,07,15,01,34,20.90
2014,07,15,01,35,20.90
2014,07,15,01,36,20.80
2014,07,15,01,37,20.80
2014,07,15,01,38,20.80
2014,07,15,01,39,20.90
2014,07,15,01,40,20.90
2014,07,15,01,41,20.90
2014,07,15,01,42,20.90
2014,07,15,01,43,20.90
2014,07,15,01,44,20.90
2014,07,15,01,45,20.90
2014,07,15,01,46,20.80
2014,07,15,01,47,20.80
2014,07,15,01,48,20.80
2014,07,15,01,49,20.80
2014,07,15,01,50,20.80
2014,07,15,01,51,20.80
2014,07,15,01,52,20.80
2014,07,15,01,53,20.70
2014,07,15,01,54,20.70
2014,07,15,01,55,20.70
2014,07,15,01,56,20.60
2014,07,15,01,57,20.60
2014,07,15,01,58,20.60
2014,07,15,01,59,20.60
2014,07,15,02,00,20.50
2014,07,15,02,01,20.50
2014,07,15,02,02,20.50
2014,07,15,02,03,20.50
2014,07,15,02,04,20.40
2014,07,15,02,05,20.40
2014,07,15,02,06,20.40
2014,07,15,02,07,20.40
2014,07,15,02,08,20.40
2014,07,15,02,09,20.30
2014,07,15,02,10,20.30
2014,07,15,02,11,20.30
2014,07,15,02,12,20.20
2014,07,15,02,13,20.20
2014,07,15,02,14,20.20
2014,07,15,02,15,20.20
2014,07,15,02,16,20.20
2014,07,15,02,17,20.20
2014,07,15,02,18,20.20
2014,07,15,02,19,20.10
2014,07,15,02,20,20.10
2014,07,15,02,21,20.10
2014,07,15,02,22,20.10
2014,07,15,02,23,20.10
2014,07,15,02,24,20.10
2014,07,15,02,25,20.00
2014,07,15,02,26,20.00
2014,07,15,02,27,20.00
2014,07,15,02,28,20.00
2014,07,15,02,29,19.90
2014,07,15,02,30,20.00
2014,07,15,02,31,20.00
2014,07,15,02,32,20.00
2014,07,15,02,33,20.00
2014,07,15,02,34,20.10
2014,07,15,02,35,20.10
2014,07,15,02,36,20.10
2014,07,15,02,37,20.10
2014,07,15,02,38,20.10
2014,07,15,02,39,20.10
2014,07,15,02,40,20.00
2014,07,15,02,41,20.00
2014,07,15,02,42,20.00
2014,07,15,02,43,20.00
2014,07,15,02,44,19.90
2014,07,15,02,45,19.90
2014,07,15,02,46,19.90
2014,07,15,02,47,19.90
2014,07,15,02,48,19.90
2014,07,15,02,49,19.90
2014,07,15,02,50,19.90
2014,07,15,02,51,19.80
2014,07,15,02,52,19.80
2014,07,15,02,53,19.80
2014,07,15,02,54,19.80
2014,07,15,02,55,19.80
2014,07,15,02,56,19.80
2014,07,15,02,57,19.80
2014,07,15,02,58,19.80
2014,07,15,02,59,19.80
2014,07,15,03,00,19.80
2014,07,15,03,01,19.80
2014,07,15,03,02,19.80
2014,07,15,03,03,19.70
2014,07,15,03,04,19.70
2014,07,15,03,05,19.70
2014,07,15,03,06,19.70
2014,07,15,03,07,19.70
2014,07,15,03,08,19.70
2014,07,15,03,09,19.70
2014,07,15,03,10,19.70
2014,07,15,03,11,19.70
2014,07,15,03,12,19.70
2014,07,15,03,13,19.70
2014,07,15,03,14,19.60
2014,07,15,03,15,19.60
2014,07,15,03,16,19.60
2014,07,15,03,17,19.60
2014,07,15,03,18,19.60
2014,07,15,03,19,19.50
2014,07,15,03,20,19.50
2014,07,15,03,21,19.50
2014,07,15,03,22,19.40
2014,07,15,03,23,19.40
2014,07,15,03,24,19.40
2014,07,15,03,25,19.40
2014,07,15,03,26,19.40
2014,07,15,03,27,19.40
2014,07,15,03,28,19.30
2014,07,15,03,29,19.30
2014,07,15,03,30,19.30
2014,07,15,03,31,19.30
2014,07,15,03,32,19.30
2014,07,15,03,33,19.30
2014,07,15,03,34,19.20
2014,07,15,03,35,19.20
2014,07,15,03,36,19.20
2014,07,15,03,37,19.20
2014,07,15,03,38,19.20
2014,07,15,03,39,19.20
2014,07,15,03,40,19.20
2014,07,15,03,41,19.10
2014,07,15,03,42,19.10
2014,07,15,03,43,19.10
2014,07,15,03,44,19.10
2014,07,15,03,45,19.10
2014,07,15,03,46,19.10
2014,07,15,03,47,19.10
2014,07,15,03,48,19.10
2014,07,15,03,49,19.00
2014,07,15,03,50,19.00
2014,07,15,03,51,19.00
2014,07,15,03,52,18.90
2014,07,15,03,53,18.90
2014,07,15,03,54,18.90
2014,07,15,03,55,18.90
2014,07,15,03,56,18.80
2014,07,15,03,57,18.80
2014,07,15,03,58,18.80
2014,07,15,03,59,18.80
2014,07,15,04,00,18.80
2014,07,15,04,01,18.70
2014,07,15,04,02,18.70
2014,07,15,04,03,18.70
2014,07,15,04,04,18.70
2014,07,15,04,05,18.70
2014,07,15,04,06,18.60
2014,07,15,04,07,18.60
2014,07,15,04,08,18.60
2014,07,15,04,09,18.60
2014,07,15,04,10,18.50
2014,07,15,04,11,18.50
2014,07,15,04,12,18.50
2014,07,15,04,13,18.40
2014,07,15,04,14,18.40
2014,07,15,04,15,18.40
2014,07,15,04,16,18.40
2014,07,15,04,17,18.40
2014,07,15,04,18,18.30
2014,07,15,04,19,18.30
2014,07,15,04,20,18.30
2014,07,15,04,21,18.30
2014,07,15,04,22,18.30
2014,07,15,04,23,18.30
2014,07,15,04,24,18.30
2014,07,15,04,25,18.30
2014,07,15,04,26,18.20
2014,07,15,04,27,18.20
2014,07,15,04,28,18.20
2014,07,15,04,29,18.20
2014,07,15,04,30,18.20
2014,07,15,04,31,18.20
2014,07,15,04,32,18.10
2014,07,15,04,33,18.10
2014,07,15,04,34,18.10
2014,07,15,04,35,18.10
2014,07,15,04,36,18.10
2014,07,15,04,37,18.00
2014,07,15,04,38,18.00
2014,07,15,04,39,18.00
2014,07,15,04,40,17.90
2014,07,15,04,41,17.90
2014,07,15,04,42,17.90
2014,07,15,04,43,17.90
2014,07,15,04,44,17.90
2014,07,15,04,45,17.90
2014,07,15,04,46,17.90
2014,07,15,04,47,17.80
2014,07,15,04,48,17.80
2014,07,15,04,49,17.80
2014,07,15,04,50,17.80
2014,07,15,04,51,17.80
2014,07,15,04,52,17.80
2014,07,15,04,53,17.70
2014,07,15,04,54,17.70
2014,07,15,04,55,17.70
2014,07,15,04,56,17.70
2014,07,15,04,57,17.70
2014,07,15,04,58,17.70
2014,07,15,04,59,17.70
2014,07,15,05,00,17.60
2014,07,15,05,01,17.60
2014,07,15,05,02,17.60
2014,07,15,05,03,17.60
2014,07,15,05,04,17.60
2014,07,15,05,05,17.60
2014,07,15,05,06,17.60
2014,07,15,05,07,17.60
2014,07,15,05,08,17.60
2014,07,15,05,09,17.60
2014,07,15,05,10,17.60
2014,07,15,05,11,17.50
2014,07,15,05,12,17.50
2014,07,15,05,13,17.50
2014,07,15,05,14,17.50
2014,07,15,05,15,17.50
2014,07,15,05,16,17.50
2014,07,15,05,17,17.50
2014,07,15,05,18,17.50
2014,07,15,05,19,17.50
2014,07,15,05,20,17.50
2014,07,15,05,21,17.50
2014,07,15,05,22,17.50
2014,07,15,05,23,17.50
2014,07,15,05,24,17.50
2014,07,15,05,25,17.50
2014,07,15,05,26,17.40
2014,07,15,05,27,17.40
2014,07,15,05,28,17.40
2014,07,15,05,29,17.40
2014,07,15,05,30,17.40
2014,07,15,05,31,17.40
2014,07,15,05,32,17.30
2014,07,15,05,33,17.30
2014,07,15,05,34,17.30
2014,07,15,05,35,17.30
2014,07,15,05,36,17.30
2014,07,15,05,37,17.30
2014,07,15,05,38,17.30
2014,07,15,05,39,17.20
2014,07,15,05,40,17.20
2014,07,15,05,41,17.20
2014,07,15,05,42,17.20
2014,07,15,05,43,17.20
2014,07,15,05,44,17.20
2014,07,15,05,45,17.20
2014,07,15,05,46,17.20
2014,07,15,05,47,17.20
2014,07,15,05,48,17.20
2014,07,15,05,49,17.20
2014,07,15,05,50,17.20
2014,07,15,05,51,17.10
2014,07,15,05,52,17.10
2014,07,15,05,53,17.10
2014,07,15,05,54,17.10
2014,07,15,05,55,17.10
2014,07,15,05,56,17.10
2014,07,15,05,57,17.10
2014,07,15,05,58,17.10
2014,07,15,05,59,17.10
2014,07,15,06,00,17.10
2014,07,15,06,01,17.10
2014,07,15,06,02,17.00
2014,07,15,06,03,17.00
2014,07,15,06,04,17.00
2014,07,15,06,05,17.00
2014,07,15,06,06,17.00
2014,07,15,06,07,17.00
2014,07,15,06,08,17.00
2014,07,15,06,09,17.00
2014,07,15,06,10,16.90
2014,07,15,06,11,16.90
2014,07,15,06,12,16.90
2014,07,15,06,13,16.90
2014,07,15,06,14,16.90
2014,07,15,06,15,16.90
2014,07,15,06,16,16.90
2014,07,15,06,17,16.90
2014,07,15,06,18,16.90
2014,07,15,06,19,16.90
2014,07,15,06,20,16.90
2014,07,15,06,21,16.90
2014,07,15,06,22,16.90
2014,07,15,06,23,16.90
2014,07,15,06,24,16.90
2014,07,15,06,25,16.90
2014,07,15,06,26,16.90
2014,07,15,06,27,16.90
2014,07,15,06,28,16.90
2014,07,15,06,29,16.90
2014,07,15,06,30,16.90
2014,07,15,06,31,16.90
2014,07,15,06,32,16.90
2014,07,15,06,33,16.90
2014,07,15,06,34,16.90
2014,07,15,06,35,16.80
2014,07,15,06,36,16.80
2014,07,15,06,37,16.80
2014,07,15,06,38,16.80
2014,07,15,06,39,16.80
2014,07,15,06,40,16.80
2014,07,15,06,41,16.80
2014,07,15,06,42,16.80
2014,07,15,06,43,16.80
2014,07,15,06,44,16.80
2014,07,15,06,45,16.80
2014,07,15,06,46,16.80
2014,07,15,06,47,16.80
2014,07,15,06,48,16.80
2014,07,15,06,49,16.80
2014,07,15,06,50,16.80
2014,07,15,06,51,16.80
2014,07,15,06,52,16.80
2014,07,15,06,53,16.80
2014,07,15,06,54,16.80
2014,07,15,06,55,16.80
2014,07,15,06,56,16.80
2014,07,15,06,57,16.80
2014,07,15,06,58,16.80
2014,07,15,06,59,16.80
2014,07,15,07,00,16.80
2014,07,15,07,01,16.80
2014,07,15,07,02,16.80
2014,07,15,07,03,16.80
2014,07,15,07,04,16.80
2014,07,15,07,05,16.80
2014,07,15,07,06,16.80
2014,07,15,07,07,16.80
2014,07,15,07,08,16.80
2014,07,15,07,09,16.80
2014,07,15,07,10,16.80
2014,07,15,07,11,16.80
2014,07,15,07,12,16.80
2014,07,15,07,13,16.80
2014,07,15,07,14,16.80
2014,07,15,07,15,16.80
2014,07,15,07,16,16.80
2014,07,15,07,17,16.80
2014,07,15,07,18,16.90
2014,07,15,07,19,16.90
2014,07,15,07,20,16.90
2014,07,15,07,21,16.90
2014,07,15,07,22,16.90
2014,07,15,07,23,16.90
2014,07,15,07,24,16.90
2014,07,15,07,25,17.00
2014,07,15,07,26,17.00
2014,07,15,07,27,17.00
2014,07,15,07,28,17.00
2014,07,15,07,29,17.00
2014,07,15,07,30,17.10
2014,07,15,07,31,17.10
2014,07,15,07,32,17.10
2014,07,15,07,33,17.10
2014,07,15,07,34,17.00
2014,07,15,07,35,17.00
2014,07,15,07,36,17.00
2014,07,15,07,37,17.00
2014,07,15,07,38,17.00
2014,07,15,07,39,17.00
2014,07,15,07,40,17.00
2014,07,15,07,41,17.00
2014,07,15,07,42,17.00
2014,07,15,07,43,17.10
2014,07,15,07,44,17.10
2014,07,15,07,45,17.10
2014,07,15,07,46,17.20
2014,07,15,07,47,17.20
2014,07,15,07,48,17.20
2014,07,15,07,49,17.30
2014,07,15,07,50,17.30
2014,07,15,07,51,17.40
2014,07,15,07,52,17.40
2014,07,15,07,53,17.50
2014,07,15,07,54,17.60
2014,07,15,07,55,17.60
2014,07,15,07,56,17.60
2014,07,15,07,57,17.70
2014,07,15,07,58,17.70
2014,07,15,07,59,17.70
2014,07,15,08,00,17.80
2014,07,15,08,01,17.80
2014,07,15,08,02,17.80
2014,07,15,08,03,17.90
2014,07,15,08,04,17.90
2014,07,15,08,05,17.90
2014,07,15,08,06,18.00
2014,07,15,08,07,18.10
2014,07,15,08,08,18.10
2014,07,15,08,09,18.10
2014,07,15,08,10,18.20
2014,07,15,08,11,18.20
2014,07,15,08,12,18.20
2014,07,15,08,13,18.20
2014,07,15,08,14,18.20
2014,07,15,08,15,18.20
2014,07,15,08,16,18.20
2014,07,15,08,17,18.20
2014,07,15,08,18,18.30
2014,07,15,08,19,18.30
2014,07,15,08,20,18.30
2014,07,15,08,21,18.30
2014,07,15,08,22,18.30
2014,07,15,08,23,18.30
2014,07,15,08,24,18.40
2014,07,15,08,25,18.40
2014,07,15,08,26,18.40
2014,07,15,08,27,18.50
2014,07,15,08,28,18.50
2014,07,15,08,29,18.50
2014,07,15,08,30,18.60
2014,07,15,08,31,18.60
2014,07,15,08,32,18.60
2014,07,15,08,33,18.60
2014,07,15,08,34,18.70
2014,07,15,08,35,18.70
2014,07,15,08,36,18.80
2014,07,15,08,37,18.80
2014,07,15,08,38,18.80
2014,07,15,08,39,18.80
2014,07,15,08,40,18.80
2014,07,15,08,41,18.80
2014,07,15,08,42,18.80
2014,07,15,08,43,18.80
2014,07,15,08,44,18.70
2014,07,15,08,45,18.70
2014,07,15,08,46,18.70
2014,07,15,08,47,18.70
2014,07,15,08,48,18.80
2014,07,15,08,49,18.80
2014,07,15,08,50,18.80
2014,07,15,08,51,18.90
2014,07,15,08,52,18.90
2014,07,15,08,53,18.90
2014,07,15,08,54,19.00
2014,07,15,08,55,19.00
2014,07,15,08,56,19.00
2014,07,15,08,57,19.00
2014,07,15,08,58,19.10
2014,07,15,08,59,19.10
2014,07,15,09,00,19.20
2014,07,15,09,01,19.20
2014,07,15,09,02,19.30
2014,07,15,09,03,19.30
2014,07,15,09,04,19.40
2014,07,15,09,05,19.50
2014,07,15,09,06,19.60
2014,07,15,09,07,19.60
2014,07,15,09,08,19.70
2014,07,15,09,09,19.80
2014,07,15,09,10,19.80
2014,07,15,09,11,19.90
2014,07,15,09,12,19.90
2014,07,15,09,13,20.00
2014,07,15,09,14,20.00
2014,07,15,09,15,20.10
2014,07,15,09,16,20.10
2014,07,15,09,17,20.10
2014,07,15,09,18,20.10
2014,07,15,09,19,20.10
2014,07,15,09,20,20.00
2014,07,15,09,21,20.00
2014,07,15,09,22,20.00
2014,07,15,09,23,20.10
2014,07,15,09,24,20.10
2014,07,15,09,25,20.10
2014,07,15,09,26,20.20
2014,07,15,09,27,20.20
2014,07,15,09,28,20.30
2014,07,15,09,29,20.30
2014,07,15,09,30,20.30
2014,07,15,09,31,20.40
2014,07,15,09,32,20.40
2014,07,15,09,33,20.50
2014,07,15,09,34,20.50
2014,07,15,09,35,20.60
2014,07,15,09,36,20.60
2014,07,15,09,37,20.70
2014,07,15,09,38,20.70
2014,07,15,09,39,20.80
2014,07,15,09,40,20.80
2014,07,15,09,41,20.80
2014,07,15,09,42,20.80
2014,07,15,09,43,20.80
2014,07,15,09,44,20.80
2014,07,15,09,45,20.80
2014,07,15,09,46,20.80
2014,07,15,09,47,20.80
2014,07,15,09,48,20.80
2014,07,15,09,49,20.90
2014,07,15,09,50,20.80
2014,07,15,09,51,20.80
2014,07,15,09,52,20.80
2014,07,15,09,53,20.70
2014,07,15,09,54,20.70
2014,07,15,09,55,20.70
2014,07,15,09,56,20.70
2014,07,15,09,57,20.70
2014,07,15,09,58,20.80
2014,07,15,09,59,20.80
2014,07,15,10,00,20.90
2014,07,15,10,01,20.90
2014,07,15,10,02,21.00
2014,07,15,10,03,21.00
2014,07,15,10,04,21.10
2014,07,15,10,05,21.10
2014,07,15,10,06,21.10
2014,07,15,10,07,21.20
2014,07,15,10,08,21.20
2014,07,15,10,09,21.20
2014,07,15,10,10,21.20
2014,07,15,10,11,21.30
2014,07,15,10,12,21.30
2014,07,15,10,13,21.30
2014,07,15,10,14,21.30
2014,07,15,10,15,21.30
2014,07,15,10,16,21.30
2014,07,15,10,17,21.30
2014,07,15,10,18,21.30
2014,07,15,10,19,21.30
2014,07,15,10,20,21.30
2014,07,15,10,21,21.30
2014,07,15,10,22,21.30
2014,07,15,10,23,21.30
2014,07,15,10,24,21.30
2014,07,15,10,25,21.30
2014,07,15,10,26,21.30
2014,07,15,10,27,21.40
2014,07,15,10,28,21.50
2014,07,15,10,29,21.60
2014,07,15,10,30,21.60
2014,07,15,10,31,21.70
2014,07,15,10,32,21.70
2014,07,15,10,33,21.70
2014,07,15,10,34,21.70
2014,07,15,10,35,21.70
2014,07,15,10,36,21.80
2014,07,15,10,37,21.80
2014,07,15,10,38,21.80
2014,07,15,10,39,21.80
2014,07,15,10,40,21.80
2014,07,15,10,41,21.90
2014,07,15,10,42,22.00
2014,07,15,10,43,22.10
2014,07,15,10,44,22.20
2014,07,15,10,45,22.30
2014,07,15,10,46,22.30
2014,07,15,10,47,22.40
2014,07,15,10,48,22.40
2014,07,15,10,49,22.50
2014,07,15,10,50,22.50
2014,07,15,10,51,22.50
2014,07,15,10,52,22.60
2014,07,15,10,53,22.60
2014,07,15,10,54,22.60
2014,07,15,10,55,22.70
2014,07,15,10,56,22.80
2014,07,15,10,57,22.90
2014,07,15,10,58,22.90
2014,07,15,10,59,23.00
2014,07,15,11,00,23.00
2014,07,15,11,01,23.00
2014,07,15,11,02,23.10
2014,07,15,11,03,23.10
2014,07,15,11,04,23.10
2014,07,15,11,05,23.10
2014,07,15,11,06,23.10
2014,07,15,11,07,23.10
2014,07,15,11,08,23.10
2014,07,15,11,09,23.10
2014,07,15,11,10,23.10
2014,07,15,11,11,23.00
2014,07,15,11,12,23.10
2014,07,15,11,13,23.10
2014,07,15,11,14,23.20
2014,07,15,11,15,23.30
2014,07,15,11,16,23.40
2014,07,15,11,17,23.40
2014,07,15,11,18,23.40
2014,07,15,11,19,23.40
2014,07,15,11,20,23.30
2014,07,15,11,21,23.30
2014,07,15,11,22,23.20
2014,07,15,11,23,23.20
2014,07,15,11,24,23.30
2014,07,15,11,25,23.30
2014,07,15,11,26,23.40
2014,07,15,11,27,23.40
2014,07,15,11,28,23.50
2014,07,15,11,29,23.60
2014,07,15,11,30,23.70
2014,07,15,11,31,23.70
2014,07,15,11,32,23.80
2014,07,15,11,33,23.80
2014,07,15,11,34,23.90
2014,07,15,11,35,23.90
2014,07,15,11,36,23.90
2014,07,15,11,37,23.90
2014,07,15,11,38,23.90
2014,07,15,11,39,23.90
2014,07,15,11,40,24.00
2014,07,15,11,41,24.00
2014,07,15,11,42,24.10
2014,07,15,11,43,24.20
2014,07,15,11,44,24.20
2014,07,15,11,45,24.30
2014,07,15,11,46,24.40
2014,07,15,11,47,24.40
2014,07,15,11,48,24.40
2014,07,15,11,49,24.40
2014,07,15,11,50,24.40
2014,07,15,11,51,24.40
2014,07,15,11,52,24.40
2014,07,15,11,53,24.40
2014,07,15,11,54,24.40
2014,07,15,11,55,24.50
2014,07,15,11,56,24.60
2014,07,15,11,57,24.60
2014,07,15,11,58,24.70
2014,07,15,11,59,24.70
2014,07,15,12,00,24.70
2014,07,15,12,01,24.70
2014,07,15,12,02,24.70
2014,07,15,12,03,24.70
2014,07,15,12,04,24.60
2014,07,15,12,05,24.50
2014,07,15,12,06,24.50
2014,07,15,12,07,24.40
2014,07,15,12,08,24.50
2014,07,15,12,09,24.50
2014,07,15,12,10,24.60
2014,07,15,12,11,24.60
2014,07,15,12,12,24.60
2014,07,15,12,13,24.70
2014,07,15,12,14,24.80
2014,07,15,12,15,24.80
2014,07,15,12,16,24.80
2014,07,15,12,17,24.90
2014,07,15,12,18,24.90
2014,07,15,12,19,25.00
2014,07,15,12,20,25.00
2014,07,15,12,21,25.00
2014,07,15,12,22,25.00
2014,07,15,12,23,25.00
2014,07,15,12,24,25.00
2014,07,15,12,25,25.10
2014,07,15,12,26,25.10
2014,07,15,12,27,25.10
2014,07,15,12,28,25.20
2014,07,15,12,29,25.20
2014,07,15,12,30,25.30
2014,07,15,12,31,25.30
2014,07,15,12,32,25.20
2014,07,15,12,33,25.20
2014,07,15,12,34,25.20
2014,07,15,12,35,25.20
2014,07,15,12,36,25.20
2014,07,15,12,37,25.20
2014,07,15,12,38,25.20
2014,07,15,12,39,25.20
2014,07,15,12,40,25.30
2014,07,15,12,41,25.30
2014,07,15,12,42,25.40
2014,07,15,12,43,25.50
2014,07,15,12,44,25.50
2014,07,15,12,45,25.40
2014,07,15,12,46,25.40
2014,07,15,12,47,25.50
2014,07,15,12,48,25.60
2014,07,15,12,49,25.70
2014,07,15,12,50,25.80
2014,07,15,12,51,25.80
2014,07,15,12,52,25.80
2014,07,15,12,53,25.80
2014,07,15,12,54,25.70
2014,07,15,12,55,25.70
2014,07,15,12,56,25.70
2014,07,15,12,57,25.70
2014,07,15,12,58,25.80
2014,07,15,12,59,25.90
2014,07,15,13,00,25.90
2014,07,15,13,01,26.00
2014,07,15,13,02,26.10
2014,07,15,13,03,26.10
2014,07,15,13,04,26.10
2014,07,15,13,05,26.10
2014,07,15,13,06,26.10
2014,07,15,13,07,25.90
2014,07,15,13,08,25.80
2014,07,15,13,09,25.80
2014,07,15,13,10,25.70
2014,07,15,13,11,25.70
2014,07,15,13,12,25.70
2014,07,15,13,13,25.70
2014,07,15,13,14,25.80
2014,07,15,13,15,25.90
2014,07,15,13,16,26.00
2014,07,15,13,17,26.00
2014,07,15,13,18,26.10
2014,07,15,13,19,26.30
2014,07,15,13,20,26.20
2014,07,15,13,21,26.20
2014,07,15,13,22,26.20
2014,07,15,13,23,26.20
2014,07,15,13,24,26.30
2014,07,15,13,25,26.40
2014,07,15,13,26,26.50
2014,07,15,13,27,26.60
2014,07,15,13,28,26.60
2014,07,15,13,29,26.70
2014,07,15,13,30,26.70
2014,07,15,13,31,26.80
2014,07,15,13,32,26.80
2014,07,15,13,33,26.90
2014,07,15,13,34,26.90
2014,07,15,13,35,27.00
2014,07,15,13,36,26.90
2014,07,15,13,37,26.90
2014,07,15,13,38,26.90
2014,07,15,13,39,26.90
2014,07,15,13,40,27.00
2014,07,15,13,41,27.10
2014,07,15,13,42,27.10
2014,07,15,13,43,27.20
2014,07,15,13,44,27.20
2014,07,15,13,45,27.20
2014,07,15,13,46,27.30
2014,07,15,13,47,27.30
2014,07,15,13,48,27.40
2014,07,15,13,49,27.40
2014,07,15,13,50,27.40
2014,07,15,13,51,27.40
2014,07,15,13,52,27.40
2014,07,15,13,53,27.40
2014,07,15,13,54,27.50
2014,07,15,13,55,27.60
2014,07,15,13,56,27.70
2014,07,15,13,57,27.80
2014,07,15,13,58,27.90
2014,07,15,13,59,28.00
2014,07,15,14,00,28.10
2014,07,15,14,01,28.10
2014,07,15,14,02,28.20
2014,07,15,14,03,28.20
2014,07,15,14,04,28.20
2014,07,15,14,05,28.20
2014,07,15,14,06,28.30
2014,07,15,14,07,28.20
2014,07,15,14,08,28.20
2014,07,15,14,09,28.30
2014,07,15,14,10,28.30
2014,07,15,14,11,28.30
2014,07,15,14,12,28.30
2014,07,15,14,13,28.40
2014,07,15,14,14,28.40
2014,07,15,14,15,28.40
2014,07,15,14,16,28.40
2014,07,15,14,17,28.50
2014,07,15,14,18,28.50
2014,07,15,14,19,28.60
2014,07,15,14,20,28.60
2014,07,15,14,21,28.60
2014,07,15,14,22,28.70
2014,07,15,14,23,28.60
2014,07,15,14,24,28.60
2014,07,15,14,25,28.70
2014,07,15,14,26,28.70
2014,07,15,14,27,28.70
2014,07,15,14,28,28.70
2014,07,15,14,29,28.70
2014,07,15,14,30,28.70
2014,07,15,14,31,28.80
2014,07,15,14,32,28.80
2014,07,15,14,33,28.80
2014,07,15,14,34,28.80
2014,07,15,14,35,28.80
2014,07,15,14,36,28.80
2014,07,15,14,37,28.80
2014,07,15,14,38,28.90
2014,07,15,14,39,29.10
2014,07,15,14,40,29.10
2014,07,15,14,41,29.20
2014,07,15,14,42,29.20
2014,07,15,14,43,29.10
2014,07,15,14,44,29.10
2014,07,15,14,45,29.10
2014,07,15,14,46,29.10
2014,07,15,14,47,29.00
2014,07,15,14,48,28.90
2014,07,15,14,49,28.80
2014,07,15,14,50,28.70
2014,07,15,14,51,28.70
2014,07,15,14,52,28.70
2014,07,15,14,53,28.80
2014,07,15,14,54,28.90
2014,07,15,14,55,29.00
2014,07,15,14,56,29.10
2014,07,15,14,57,29.10
2014,07,15,14,58,29.20
2014,07,15,14,59,29.20
2014,07,15,15,00,29.30
2014,07,15,15,01,29.30
2014,07,15,15,02,29.20
2014,07,15,15,03,29.00
2014,07,15,15,04,28.90
2014,07,15,15,05,28.90
2014,07,15,15,06,28.90
2014,07,15,15,07,29.00
2014,07,15,15,08,29.00
2014,07,15,15,09,29.10
2014,07,15,15,10,29.20
2014,07,15,15,11,29.30
2014,07,15,15,12,29.40
2014,07,15,15,13,29.40
2014,07,15,15,14,29.40
2014,07,15,15,15,29.40
2014,07,15,15,16,29.40
2014,07,15,15,17,29.50
2014,07,15,15,18,29.60
2014,07,15,15,19,29.60
2014,07,15,15,20,29.60
2014,07,15,15,21,29.60
2014,07,15,15,22,29.70
2014,07,15,15,23,29.80
2014,07,15,15,24,29.80
2014,07,15,15,25,30.00
2014,07,15,15,26,30.00
2014,07,15,15,27,30.10
2014,07,15,15,28,30.10
2014,07,15,15,29,30.10
2014,07,15,15,30,30.10
2014,07,15,15,31,30.10
2014,07,15,15,32,30.00
2014,07,15,15,33,30.00
2014,07,15,15,34,29.90
2014,07,15,15,35,29.90
2014,07,15,15,36,29.80
2014,07,15,15,37,29.80
2014,07,15,15,38,29.90
2014,07,15,15,39,30.00
2014,07,15,15,40,30.10
2014,07,15,15,41,30.20
2014,07,15,15,42,30.10
2014,07,15,15,43,30.10
2014,07,15,15,44,30.10
2014,07,15,15,45,30.00
2014,07,15,15,46,30.00
2014,07,15,15,47,29.90
2014,07,15,15,48,30.00
2014,07,15,15,49,30.00
2014,07,15,15,50,30.10
2014,07,15,15,51,30.20
2014,07,15,15,52,30.30
2014,07,15,15,53,30.30
2014,07,15,15,54,30.40
2014,07,15,15,55,30.40
2014,07,15,15,56,30.50
2014,07,15,15,57,30.60
2014,07,15,15,58,30.60
2014,07,15,15,59,30.70
2014,07,15,16,00,30.70
2014,07,15,16,01,30.60
2014,07,15,16,02,30.50
2014,07,15,16,03,30.50
2014,07,15,16,04,30.50
2014,07,15,16,05,30.40
2014,07,15,16,06,30.50
2014,07,15,16,07,30.50
2014,07,15,16,08,30.50
2014,07,15,16,09,30.50
2014,07,15,16,10,30.50
2014,07,15,16,11,30.40
2014,07,15,16,12,30.40
2014,07,15,16,13,30.30
2014,07,15,16,14,30.30
2014,07,15,16,15,30.40
2014,07,15,16,16,30.40
2014,07,15,16,17,30.40
2014,07,15,16,18,30.40
2014,07,15,16,19,30.40
2014,07,15,16,20,30.40
2014,07,15,16,21,30.40
2014,07,15,16,22,30.40
2014,07,15,16,23,30.50
2014,07,15,16,24,30.50
2014,07,15,16,25,30.50
2014,07,15,16,26,30.50
2014,07,15,16,27,30.50
2014,07,15,16,28,30.60
2014,07,15,16,29,30.70
2014,07,15,16,30,30.70
2014,07,15,16,31,30.80
2014,07,15,16,32,30.80
2014,07,15,16,33,30.80
2014,07,15,16,34,30.80
2014,07,15,16,35,30.70
2014,07,15,16,36,30.70
2014,07,15,16,37,30.70
2014,07,15,16,38,30.60
2014,07,15,16,39,30.50
2014,07,15,16,40,30.50
2014,07,15,16,41,30.40
2014,07,15,16,42,30.30
2014,07,15,16,43,30.30
2014,07,15,16,44,30.30
2014,07,15,16,45,30.20
2014,07,15,16,46,30.10
2014,07,15,16,47,30.10
2014,07,15,16,48,30.00
2014,07,15,16,49,30.00
2014,07,15,16,50,30.00
2014,07,15,16,51,29.90
2014,07,15,16,52,29.90
2014,07,15,16,53,29.80
2014,07,15,16,54,29.70
2014,07,15,16,55,29.70
2014,07,15,16,56,29.60
2014,07,15,16,57,29.60
2014,07,15,16,58,29.60
2014,07,15,16,59,29.60
2014,07,15,17,00,29.50
2014,07,15,17,01,29.50
2014,07,15,17,02,29.40
2014,07,15,17,03,29.40
2014,07,15,17,04,29.40
2014,07,15,17,05,29.50
2014,07,15,17,06,29.50
2014,07,15,17,07,29.60
2014,07,15,17,08,29.50
2014,07,15,17,09,29.50
2014,07,15,17,10,29.40
2014,07,15,17,11,29.40
2014,07,15,17,12,29.30
2014,07,15,17,13,29.40
2014,07,15,17,14,29.40
2014,07,15,17,15,29.40
2014,07,15,17,16,29.40
2014,07,15,17,17,29.30
2014,07,15,17,18,29.30
2014,07,15,17,19,29.30